Medicine Lodge, KS

5:10 AM CDT on July 28, 2017 (GMT -0500)
Medicine Lodge

Weather History for KP28 - March, 2014

Change the Weather History Date:

Monday, March 31, 2014

  Actual Average Record
Temperature  
Mean Temperature 58 °F 51 °F  
Max Temperature 73 °F 64 °F 96 °F (1940)
Min Temperature 43 °F 39 °F 12 °F (1926)
Degree Days  
Heating Degree Days 7 14  
Month to date heating degree days 724 569  
Since 1 July heating degree days 4675 4097  
Cooling Degree Days 0 0  
Month to date cooling degree days 0 2  
Year to date cooling degree days 0 2  
Growing Degree Days 12 (Base 50)    
Moisture  
Dew Point 31 °F    
Average Humidity 32    
Maximum Humidity 51    
Minimum Humidity 13    
Precipitation  
Precipitation 0.00 in 0.08 in 0.98 in (1993)
Month to date precipitation 0.49 2.26  
Year to date precipitation 1.44 4.01  
Snow  
Snow 0.00 in 0.00 in - ()
Month to date snowfall 4.0 0.1  
Since 1 July snowfall 27.0 8.5  
Snow Depth 0.00 in    
Sea Level Pressure  
Sea Level Pressure 29.73 in    
Wind  
Wind Speed 17 mph (WNW)    
Max Wind Speed 28 mph    
Max Gust Speed 37 mph    
T = Trace of Precipitation, MM = Missing Value Source: NWS Daily Summary

Daily Weather History Graph

Daily Weather History Graph

Search for Another Location

Airport or City:

Trip Planner

Search our weather history database for the weather conditions in past years. The results will help you decide how hot, cold, wet, or windy it might be!

Date:

Astronomy

Mar. 31, 2014 Rise Set
Actual Time 7:21 AM CDT 7:56 PM CDT
Civil Twilight 6:55 AM CDT 8:22 PM CDT
Nautical Twilight 6:24 AM CDT 8:53 PM CDT
Astronomical Twilight 5:52 AM CDT 9:25 PM CDT
Moon 7:47 AM CDT (3/31) 9:14 PM CDT (3/31)
Length of Visible Light 13h 27m
Length of Day
12h 34m
New Moon, 1% of the Moon is Illuminated
Mar 31
New Moon
Apr 7
First Quarter
Apr 15
Full
Apr 22
Last Quarter
Apr 29
New

Hourly Weather History & Observations

Time (CDT) Temp. Dew Point Humidity Pressure Visibility Wind Dir Wind Speed Gust Speed Precip Events Conditions
12:56 AM 63.0 °F 37.0 °F 38% 29.63 in - South 23.0 mph 31.1 mph N/A   Unknown
1:56 AM 62.1 °F 37.9 °F 41% 29.62 in - South 20.7 mph 31.1 mph N/A   Unknown
2:56 AM 61.0 °F 39.9 °F 46% 29.60 in - South 15.0 mph - N/A   Unknown
3:56 AM 61.0 °F 41.0 °F 48% 29.58 in - South 13.8 mph - N/A   Unknown
4:56 AM 64.0 °F 42.1 °F 45% 29.55 in - South 24.2 mph 33.4 mph N/A   Unknown
5:56 AM 62.1 °F 43.0 °F 50% 29.57 in - SSW 20.7 mph 32.2 mph N/A   Unknown
6:56 AM 60.1 °F 43.0 °F 53% 29.59 in - SSW 12.7 mph 21.9 mph N/A   Unknown
7:56 AM 60.1 °F 43.0 °F 53% 29.63 in - SSW 10.4 mph - N/A   Unknown
8:56 AM 64.0 °F 41.0 °F 43% 29.65 in - SW 13.8 mph - N/A   Unknown
9:56 AM 69.1 °F 27.0 °F 21% 29.67 in - West 15.0 mph 23.0 mph N/A   Unknown
10:56 AM 71.1 °F 18.0 °F 13% 29.67 in - WNW 17.3 mph 27.6 mph N/A   Unknown
11:56 AM 72.0 °F 21.9 °F 15% 29.70 in - NW 20.7 mph 25.3 mph N/A   Unknown
12:56 PM 73.0 °F 28.0 °F 19% 29.72 in - NNW 21.9 mph 31.1 mph N/A   Unknown
1:56 PM 72.0 °F 30.0 °F 21% 29.74 in - NW 18.4 mph 28.8 mph N/A   Unknown
2:56 PM 71.1 °F 27.0 °F 19% 29.76 in - NW 18.4 mph 28.8 mph N/A   Unknown
3:56 PM 72.0 °F 26.1 °F 18% 29.76 in - NNW 19.6 mph 27.6 mph N/A   Unknown
4:56 PM 71.1 °F 25.0 °F 18% 29.78 in - NW 12.7 mph 32.2 mph N/A   Unknown
5:56 PM 71.1 °F 25.0 °F 18% 29.80 in - NW 16.1 mph 26.5 mph N/A   Unknown
6:56 PM 68.0 °F 24.1 °F 19% 29.83 in - NNW 17.3 mph 24.2 mph N/A   Unknown
7:56 PM 61.0 °F 26.1 °F 26% 29.86 in - North 8.1 mph - N/A   Unknown
8:56 PM 57.0 °F 25.0 °F 29% 29.91 in - North 20.7 mph 29.9 mph N/A   Unknown
9:56 PM 54.0 °F 25.0 °F 33% 29.96 in - North 20.7 mph - N/A   Unknown
10:56 PM 50.0 °F 25.0 °F 38% 29.97 in - North 21.9 mph 33.4 mph N/A   Unknown
11:56 PM 46.9 °F 25.0 °F 42% 29.99 in - NNE 21.9 mph 36.8 mph N/A   Unknown